Location: Kerberlivit
(48.2787°N, 4.5413°W)
Time: 20:11:43
(UTC+00:00)

Cosmos 2221 - Pass Details

Date: 18 February 2020
Orbit: 593 x 615 km, 82.5° (Epoch: 30 March)

Event Time Altitude Azimuth Distance (km) Brightness Sun altitude
Rises 06:05:01 0° 211° (SSW) 2,825 5.7 -13.3°
Reaches altitude 10° 06:07:22 10° 220° (SW) 1,930 4.7 -12.9°
Maximum altitude 06:11:17 35° 287° (WNW) 983 3.1 -12.2°
Drops below altitude 10° 06:15:15 10° 353° (N) 1,955 5.0 -11.6°
Sets 06:17:38 0° 3° (N) 2,867 6.0 -11.2°
